Weather History for False Pass, AK

Change the Weather History Date:

Sunday, August 18, 2013

  Actual Average (PACD) Record (PACD)
Temperature  
Mean Temperature 52 °F 52 °F  
Max Temperature 53 °F 57 °F 62 °F (1959)
Min Temperature 48 °F 48 °F 39 °F (1967)
Degree Days  
Heating Degree Days 14 13  
Month to date heating degree days 234  
Since 1 June heating degree days 1234  
Since 1 July heating degree days 672  
Cooling Degree Days 0    
Month to date cooling degree days  
Year to date cooling degree days  
Since 1 June cooling degree days  
Growing Degree Days 2 (Base 50)    
Moisture  
Dew Point 44 °F    
Average Humidity 76    
Maximum Humidity 87    
Minimum Humidity 64    
Precipitation  
Precipitation 0.01 in 0.11 in 1.26 in (1983)
Month to date precipitation 2.00  
Year to date precipitation 21.06  
Snow  
Snow 0.00 in 0.00 in 0.00 in (2013)
Month to date snowfall 0.0  
Since 1 June snowfall 0.0  
Since 1 July snowfall 0.0  
Snow Depth -    
Sea Level Pressure  
Sea Level Pressure 30.12 in    
Wind  
Wind Speed 22 mph (WSW)    
Max Wind Speed 40 mph    
Max Gust Speed 56 mph    
Visibility 10 miles    
Events Rain    
T = Trace of Precipitation, MM = Missing Value Source: NWS Daily Summary

Daily Weather History Graph

Daily Weather History Graph

Search for Another Location

Airport:

Trip Planner

Search our weather history database for the weather conditions in past years. The results will help you decide how hot, cold, wet, or windy it might be!

Date:

Astronomy

Aug. 18, 2013 Rise Set
Actual Time 6:35 AM HADT 9:18 PM HADT
Civil Twilight 5:54 AM HADT 9:58 PM HADT
Nautical Twilight 5:00 AM HADT 10:51 PM HADT
Astronomical Twilight 3:52 AM HADT 11:58 PM HADT
Moon 7:41 PM HADT (8/18) 3:45 AM HADT (8/18)
Length of Visible Light 16h 04m
Length of Day
14h 43m
Waxing Gibbous, 93% of the Moon is Illuminated
Aug 18
Waxing Gibbous
Aug 20
Full
Aug 28
Last Quarter
Sep 5
New
Sep 12
First Quarter

Hourly Weather History & Observations

Time (HADT) Temp. Dew Point Humidity Pressure Visibility Wind Dir Wind Speed Gust Speed Precip Events Conditions
12:01 AM 48.2 °F 44.6 °F 87% 29.87 in 10.0 mi WSW 21.9 mph 35.7 mph 0.01 in Rain Light Rain
1:01 AM 48.0 °F 43.0 °F 83% 30.17 in 9.0 mi West 13.8 mph 31.1 mph 0.01 in Rain Light Rain
2:01 AM 48.9 °F 42.1 °F 77% 30.18 in 10.0 mi WSW 12.7 mph 25.3 mph 0.00 in   Overcast
3:01 AM 48.0 °F 42.1 °F 80% 30.16 in 10.0 mi WSW 21.9 mph 35.7 mph 0.00 in Rain Light Rain
3:44 AM 48.2 °F 42.8 °F 82% 29.88 in 10.0 mi West 18.4 mph 49.5 mph 0.00 in Rain Light Rain
3:52 AM 48.2 °F 42.8 °F 82% 29.86 in 10.0 mi WSW 34.5 mph 48.3 mph 0.00 in Rain Light Rain
4:01 AM 48.9 °F 42.1 °F 77% 30.14 in 10.0 mi West 27.6 mph 51.8 mph 0.00 in   Overcast
4:16 AM 48.2 °F 42.8 °F 82% 29.86 in 10.0 mi WSW 40.3 mph 50.6 mph 0.00 in Rain Light Rain
4:41 AM 48.2 °F 41.0 °F 76% 29.86 in 10.0 mi WSW 33.4 mph 51.8 mph 0.00 in   Mostly Cloudy
4:48 AM 48.2 °F 41.0 °F 76% 29.85 in 10.0 mi WSW 38.0 mph 56.4 mph 0.00 in   Mostly Cloudy
5:01 AM 48.2 °F 41.0 °F 76% 29.86 in 10.0 mi WSW 33.4 mph 48.3 mph 0.00 in   Scattered Clouds
6:01 AM 48.9 °F 41.0 °F 74% 30.15 in 10.0 mi WSW 34.5 mph 48.3 mph 0.00 in   Clear
7:01 AM 50.0 °F 41.0 °F 71% 30.17 in 10.0 mi WSW 29.9 mph 52.9 mph N/A   Clear
8:01 AM 50.0 °F 42.1 °F 74% 30.19 in 10.0 mi WSW 31.1 mph 46.0 mph N/A   Clear
9:01 AM 52.0 °F 42.1 °F 69% 30.19 in 10.0 mi WSW 26.5 mph 38.0 mph N/A   Clear
10:01 AM 54.0 °F 42.1 °F 64% 30.19 in 10.0 mi WSW 27.6 mph 43.7 mph N/A   Clear
11:01 AM 54.0 °F 44.1 °F 69% 30.21 in 10.0 mi WSW 21.9 mph 39.1 mph N/A   Clear
12:01 PM 55.0 °F 45.0 °F 69% 30.22 in 10.0 mi WSW 18.4 mph 29.9 mph N/A   Clear
1:01 PM 54.0 °F 44.1 °F 69% 30.24 in 10.0 mi WSW 18.4 mph 29.9 mph N/A   Partly Cloudy
2:01 PM 55.0 °F 46.0 °F 72% 30.25 in 9.0 mi West 18.4 mph 35.7 mph N/A   Clear
2:36 PM 55.4 °F 46.4 °F 72% 29.97 in 10.0 mi WSW 18.4 mph 33.4 mph N/A   Mostly Cloudy
3:01 PM 54.0 °F 45.0 °F 72% 30.27 in 10.0 mi WSW 17.3 mph 32.2 mph N/A   Overcast
4:01 PM 52.0 °F 44.1 °F 74% 30.27 in 10.0 mi WSW 19.6 mph 28.8 mph N/A   Overcast
5:01 PM 53.1 °F 44.1 °F 71% 30.25 in 9.0 mi Variable 4.6 mph 20.7 mph N/A   Overcast
6:01 PM 54.0 °F 46.9 °F 77% 30.25 in 10.0 mi SW 11.5 mph 19.6 mph N/A   Overcast
7:01 PM 53.1 °F 48.0 °F 83% 30.24 in 8.0 mi WSW 12.7 mph 23.0 mph 0.00 in Rain Light Rain
8:01 PM 53.1 °F 48.0 °F 83% 30.24 in 10.0 mi SW 10.4 mph 20.7 mph 0.00 in Rain Light Rain
9:01 PM 53.1 °F 48.0 °F 83% 30.24 in 9.0 mi WSW 11.5 mph 26.5 mph 0.00 in Rain Light Rain
10:01 PM 53.1 °F 48.0 °F 83% 30.25 in 9.0 mi WSW 15.0 mph 26.5 mph 0.00 in Rain Light Rain
11:01 PM 53.1 °F 48.0 °F 83% 30.26 in 10.0 mi Variable 3.5 mph 17.3 mph 0.00 in Rain Light Rain